• In Deutschland
  • Länderverzeichnis
  • Für 7 Tage
  • Wassertemperatur
  • Satellitenkarten
  • Wetterkarte
  • Widgets
  • user-avatar
    Anmelden

    Stündliche Wetter Buriti Alegre

    Heute, 24 Mai, Donnerstag

    Zeit Temperatur Niederschläge Wind Luftdruck Luftfeuchtigkeit
    00:00 +17°C° 0 mm 2 m/S 701 mmHg 68%
    01:00 +18°C° 0 mm 1 m/S 701 mmHg 70%
    02:00 +16°C° 0 mm 1 m/S 701 mmHg 71%
    03:00 +16°C° 0 mm 1 m/S 701 mmHg 71%
    04:00 +16°C° 0 mm 1 m/S 701 mmHg 72%
    05:00 +16°C° 0 mm 1 m/S 701 mmHg 73%
    06:00 +16°C° 0 mm 1 m/S 701 mmHg 75%
    07:00 +17°C° 0 mm 2 m/S 702 mmHg 72%
    08:00 +19°C° 0 mm 2 m/S 702 mmHg 69%
    09:00 +21°C° 0 mm 2 m/S 703 mmHg 67%
    10:00 +24°C° 0 mm 2 m/S 703 mmHg 63%
    11:00 +26°C° 0 mm 3 m/S 703 mmHg 59%
    12:00 +28°C° 0 mm 3 m/S 703 mmHg 55%
    13:00 +28°C° 0 mm 2 m/S 703 mmHg 52%
    14:00 +28°C° 0 mm 2 m/S 702 mmHg 50%
    15:00 +29°C° 0 mm 1 m/S 702 mmHg 47%
    16:00 +27°C° 0 mm 1 m/S 701 mmHg 52%
    17:00 +25°C° 0 mm 1 m/S 701 mmHg 58%
    18:00 +23°C° 0 mm 2 m/S 701 mmHg 63%
    19:00 +21°C° 0 mm 2 m/S 701 mmHg 65%
    20:00 +21°C° 0 mm 2 m/S 701 mmHg 67%
    21:00 +20°C° 0 mm 2 m/S 702 mmHg 70%
    22:00 +19°C° 0 mm 2 m/S 702 mmHg 72%
    23:00 +19°C° 0 mm 2 m/S 702 mmHg 75%

    Morgen, 25 Mai, Freitag

    Zeit Temperatur Niederschläge Wind Luftdruck Luftfeuchtigkeit
    00:00 +18°C° 0 mm 2 m/S 702 mmHg 77%
    01:00 +18°C° 0 mm 2 m/S 701 mmHg 81%
    02:00 +18°C° 0 mm 2 m/S 701 mmHg 84%
    03:00 +17°C° 0 mm 2 m/S 701 mmHg 88%
    04:00 +17°C° 0 mm 2 m/S 701 mmHg 91%
    05:00 +17°C° 0 mm 2 m/S 701 mmHg 93%
    06:00 +17°C° 0 mm 2 m/S 701 mmHg 95%
    07:00 +18°C° 0 mm 3 m/S 701 mmHg 90%
    08:00 +20°C° 0 mm 4 m/S 702 mmHg 84%
    09:00 +21°C° 0 mm 4 m/S 703 mmHg 78%
    10:00 +23°C° 0 mm 4 m/S 703 mmHg 72%
    11:00 +25°C° 0 mm 4 m/S 703 mmHg 66%
    12:00 +27°C° 0 mm 4 m/S 703 mmHg 60%
    13:00 +27°C° 0 mm 3 m/S 702 mmHg 58%
    14:00 +28°C° 0 mm 3 m/S 701 mmHg 56%
    15:00 +28°C° 0 mm 3 m/S 701 mmHg 54%
    16:00 +27°C° 0,1 mm 2 m/S 701 mmHg 61%
    17:00 +25°C° 0,1 mm 2 m/S 700 mmHg 67%
    18:00 +23°C° 0,1 mm 2 m/S 700 mmHg 73%
    19:00 +21°C° 0,1 mm 2 m/S 700 mmHg 77%
    20:00 +20°C° 0,1 mm 2 m/S 701 mmHg 81%
    21:00 +19°C° 0,1 mm 2 m/S 701 mmHg 84%
    22:00 +19°C° 0 mm 2 m/S 701 mmHg 87%
    23:00 +19°C° 0 mm 2 m/S 701 mmHg 89%

    übermorgen, 26 Mai, Samstag

    Zeit Temperatur Niederschläge Wind Luftdruck Luftfeuchtigkeit
    00:00 +18°C° 0 mm 2 m/S 701 mmHg 91%
    01:00 +18°C° 0,2 mm 2 m/S 701 mmHg 92%
    02:00 +17°C° 0,2 mm 2 m/S 700 mmHg 93%
    03:00 +17°C° 0,2 mm 2 m/S 700 mmHg 94%
    04:00 +17°C° 0 mm 2 m/S 700 mmHg 94%
    05:00 +17°C° 0 mm 2 m/S 700 mmHg 94%
    06:00 +16°C° 0 mm 2 m/S 700 mmHg 94%
    07:00 +18°C° 0 mm 3 m/S 701 mmHg 88%
    08:00 +19°C° 0 mm 3 m/S 701 mmHg 82%
    09:00 +20°C° 0 mm 4 m/S 702 mmHg 76%
    10:00 +22°C° 0 mm 4 m/S 702 mmHg 70%
    11:00 +23°C° 0 mm 4 m/S 702 mmHg 63%
    12:00 +26°C° 0 mm 4 m/S 702 mmHg 56%
    13:00 +27°C° 0 mm 4 m/S 702 mmHg 55%
    14:00 +27°C° 0 mm 3 m/S 701 mmHg 53%
    15:00 +27°C° 0 mm 3 m/S 700 mmHg 51%
    16:00 +26°C° 0 mm 2 m/S 700 mmHg 57%
    17:00 +24°C° 0 mm 2 m/S 700 mmHg 62%
    18:00 +23°C° 0 mm 2 m/S 700 mmHg 68%
    19:00 +21°C° 0 mm 2 m/S 700 mmHg 71%
    20:00 +20°C° 0 mm 2 m/S 700 mmHg 74%
    21:00 +19°C° 0 mm 2 m/S 701 mmHg 77%
    22:00 +19°C° 0 mm 2 m/S 701 mmHg 80%
    23:00 +18°C° 0 mm 3 m/S 701 mmHg 83%

    27 Mai, Sonntag

    Zeit Temperatur Niederschläge Wind Luftdruck Luftfeuchtigkeit
    00:00 +18°C° 0 mm 3 m/S 701 mmHg 86%
    01:00 +17°C° 0 mm 3 m/S 701 mmHg 87%
    02:00 +17°C° 0 mm 3 m/S 701 mmHg 89%
    03:00 +17°C° 0 mm 3 m/S 700 mmHg 91%
    04:00 +16°C° 0 mm 3 m/S 701 mmHg 92%
    05:00 +16°C° 0 mm 3 m/S 701 mmHg 92%
    06:00 +16°C° 0 mm 3 m/S 701 mmHg 92%
    07:00 +18°C° 0 mm 4 m/S 702 mmHg 86%
    08:00 +19°C° 0 mm 4 m/S 703 mmHg 81%
    09:00 +20°C° 0 mm 5 m/S 704 mmHg 75%
    10:00 +22°C° 0 mm 5 m/S 704 mmHg 69%
    11:00 +23°C° 0 mm 4 m/S 704 mmHg 64%
    12:00 +26°C° 0 mm 4 m/S 704 mmHg 58%
    13:00 +26°C° 0 mm 4 m/S 703 mmHg 56%
    14:00 +27°C° 0 mm 3 m/S 702 mmHg 53%
    15:00 +27°C° 0 mm 3 m/S 702 mmHg 51%
    16:00 +26°C° 0 mm 2 m/S 702 mmHg 56%
    17:00 +24°C° 0 mm 2 m/S 701 mmHg 61%
    18:00 +23°C° 0 mm 2 m/S 701 mmHg 67%
    19:00 +21°C° 0 mm 2 m/S 702 mmHg 70%
    20:00 +20°C° 0 mm 2 m/S 702 mmHg 72%
    21:00 +19°C° 0 mm 2 m/S 702 mmHg 75%
    22:00 +19°C° 0 mm 2 m/S 702 mmHg 77%
    23:00 +18°C° 0 mm 2 m/S 702 mmHg 79%

    28 Mai, Montag

    Zeit Temperatur Niederschläge Wind Luftdruck Luftfeuchtigkeit
    00:00 +18°C° 0 mm 2 m/S 702 mmHg 82%
    01:00 +17°C° 0 mm 2 m/S 702 mmHg 84%
    02:00 +17°C° 0 mm 2 m/S 701 mmHg 86%
    03:00 +16°C° 0 mm 2 m/S 701 mmHg 88%
    04:00 +16°C° 0 mm 2 m/S 701 mmHg 88%
    05:00 +16°C° 0 mm 3 m/S 701 mmHg 89%
    06:00 +16°C° 0 mm 3 m/S 702 mmHg 89%
    07:00 +17°C° 0 mm 4 m/S 702 mmHg 83%
    08:00 +19°C° 0 mm 4 m/S 703 mmHg 78%
    09:00 +20°C° 0 mm 5 m/S 704 mmHg 73%
    10:00 +22°C° 0 mm 5 m/S 704 mmHg 67%
    11:00 +23°C° 0 mm 5 m/S 703 mmHg 62%
    12:00 +26°C° 0 mm 5 m/S 703 mmHg 56%
    13:00 +26°C° 0 mm 4 m/S 703 mmHg 55%
    14:00 +27°C° 0 mm 4 m/S 702 mmHg 53%
    15:00 +27°C° 0 mm 4 m/S 702 mmHg 51%
    16:00 +26°C° 0 mm 3 m/S 701 mmHg 57%
    17:00 +24°C° 0 mm 3 m/S 701 mmHg 63%
    18:00 +21°C° 0 mm 2 m/S 701 mmHg 69%
    19:00 +20°C° 0 mm 2 m/S 701 mmHg 72%
    20:00 +20°C° 0 mm 2 m/S 701 mmHg 74%
    21:00 +19°C° 0 mm 3 m/S 702 mmHg 77%
    22:00 +18°C° 0 mm 3 m/S 701 mmHg 79%
    23:00 +18°C° 0 mm 3 m/S 701 mmHg 81%

    29 Mai, Dienstag

    Zeit Temperatur Niederschläge Wind Luftdruck Luftfeuchtigkeit
    00:00 +18°C° 0 mm 3 m/S 701 mmHg 83%
    01:00 +17°C° 0 mm 3 m/S 701 mmHg 83%
    02:00 +17°C° 0 mm 3 m/S 701 mmHg 84%
    03:00 +17°C° 0 mm 4 m/S 700 mmHg 85%
    04:00 +17°C° 0 mm 4 m/S 700 mmHg 85%
    05:00 +17°C° 0 mm 4 m/S 701 mmHg 85%
    06:00 +17°C° 0 mm 4 m/S 701 mmHg 85%
    07:00 +17°C° 0 mm 5 m/S 702 mmHg 81%
    08:00 +19°C° 0 mm 5 m/S 702 mmHg 76%
    09:00 +20°C° 0 mm 6 m/S 703 mmHg 72%
    10:00 +22°C° 0 mm 6 m/S 703 mmHg 67%
    11:00 +23°C° 0 mm 6 m/S 703 mmHg 62%
    12:00 +26°C° 0 mm 6 m/S 703 mmHg 57%
    13:00 +26°C° 0 mm 5 m/S 702 mmHg 55%
    14:00 +26°C° 0 mm 5 m/S 702 mmHg 54%
    15:00 +27°C° 0 mm 4 m/S 701 mmHg 53%
    16:00 +25°C° 0 mm 4 m/S 701 mmHg 59%
    17:00 +22°C° 0 mm 3 m/S 700 mmHg 65%
    18:00 +21°C° 0 mm 2 m/S 700 mmHg 70%
    19:00 +20°C° 0 mm 3 m/S 701 mmHg 73%
    20:00 +19°C° 0 mm 3 m/S 701 mmHg 75%
    21:00 +19°C° 0 mm 3 m/S 701 mmHg 77%
    22:00 +18°C° 0 mm 3 m/S 701 mmHg 78%
    23:00 +18°C° 0 mm 3 m/S 701 mmHg 80%
    Mehr zeigen